Location: All Nations United Methodist Church
(33.0215°N, 96.7483°W)
Time: 15:17:47
(UTC+00:00)

Cosmos 2026 Rocket - Pass Details

Date: 24 January 2021
Orbit: 940 x 1000 km, 82.9° (Epoch: 06 March)

Event Time Altitude Azimuth Distance (km) Brightness Sun altitude
Rises 12:51:45 0° 348° (NNW) 3,716 6.7 -7.7°
Reaches altitude 10° 12:54:19 10° 345° (NNW) 2,768 6.1 -7.2°
Maximum altitude 13:00:31 58° 268° (W) 1,155 4.2 -6.0°
Drops below altitude 10° 13:06:43 10° 191° (S) 2,758 6.5 -4.8°
Sets 13:09:17 0° 187° (S) 3,701 7.2 -4.3°
